Station SLIM2 - 8577330 - Solomons Island, MD Image indicating link to RSS feed of recent meteorological observations for station SLIM2


Conditions at SLIM2 as of
(3:30 pm EDT)
1930 GMT on 05/28/2024:
     

Click on the graph icon in the table below to see a time series plot of the last five days of that observation.

5-day plot - Wind Direction Wind Direction (WDIR):WSW ( 250 deg true )
5-day plot - Wind Speed Wind Speed (WSPD): 8.0 kts
5-day plot - Wind Gust Wind Gust (GST): 11.1 kts
5-day plot - Atmospheric Pressure Atmospheric Pressure (PRES):29.84 in
5-day plot - Air Temperature Air Temperature (ATMP): 79.9 °F
5-day plot - Water Temperature Water Temperature (WTMP): 71.4 °F
5-day plot - Wind Speed at 10 Meters Wind Speed at 10 meters (WSPD10M): 7.8 kts
5-day plot - Wind Speed at 20 Meters Wind Speed at 20 meters (WSPD20M): 9.7 kts
5-day plot -  Wind Speed, Wind Gust and Atmospheric Pressure Combined plot of Wind Speed, Gust, and Air Pressure
NOS Water Level Observation Network Water Level
Previous observations
TIME
(EDT)
5-day plot - Wind Direction
WDIR
 
5-day plot - Wind Speed
WSPD
kts
5-day plot - Wind Gust
GST
kts
5-day plot - Wave Height
WVHT
ft
5-day plot - Dominant Wave Period
DPD
sec
5-day plot - Average Wave Period
APD
sec
5-day plot - Mean Wave Direction
MWD
 
5-day plot - Atmospheric Pressure
PRES
in
5-day plot - Pressure Tendency
PTDY
in
5-day plot - Air Temperature
ATMP
°F
5-day plot - Water Temperature
WTMP
°F
5-day plot - Dew Point
DEWP
°F
5-day plot - Salinity
SAL
psu
5-day plot - Visibility
VIS
nmi
5-day plot - Tide (above MLLW)
TIDE
ft
2024-05-28 03:24 pm W 7.0 9.9----29.84- 80.8 71.6----
2024-05-28 03:18 pm W 7.0 15.9----29.84- 80.6 71.6----
2024-05-28 03:12 pm W 9.9 14.0----29.84- 80.2 71.6----
2024-05-28 03:06 pm W 12.0 15.9----29.84- 80.4 71.4----
2024-05-28 03:00 pm W 6.0 9.9----29.84-0.02 80.6 71.2----
2024-05-28 02:54 pmWNW 7.0 12.0----29.84- 80.4 71.2----
2024-05-28 02:48 pm W 8.0 12.0----29.84- 80.6 71.2----
2024-05-28 02:42 pm W 8.0 11.1----29.84- 80.2 71.4----
2024-05-28 02:36 pmWNW 5.1 8.9----29.84- 80.4 71.4----
2024-05-28 02:30 pmWNW 5.1 8.0----29.84- 80.2 71.4----
2024-05-28 02:24 pmWNW 6.0 9.9----29.84- 79.7 71.4----
2024-05-28 02:18 pmWNW 6.0 15.0----29.85- 79.3 71.6----
2024-05-28 02:12 pmWSW 7.0 8.9----29.85- 79.7 71.4----
2024-05-28 02:06 pm NW 5.1 12.0----29.85- 79.2 71.2----
2024-05-28 02:00 pm W 8.9 13.0----29.85-0.01 79.0 71.1----
2024-05-28 01:54 pm W 8.9 12.0----29.85- 79.5 71.2----
2024-05-28 01:48 pm W 8.9 13.0----29.85- 79.3 71.1----
2024-05-28 01:42 pm W 9.9 15.0----29.85- 79.5 71.2----
2024-05-28 01:36 pmWNW 8.0 13.0----29.85- 79.0 71.2----
2024-05-28 01:30 pmWNW 7.0 11.1----29.86- 79.0 71.2----
2024-05-28 01:24 pm W 9.9 15.0----29.86- 78.8 71.1----
2024-05-28 01:18 pm W 7.0 8.9----29.86- 79.5 70.7----
2024-05-28 01:12 pm NW 5.1 13.0----29.86- 78.3 70.3----
2024-05-28 01:06 pm W 8.9 12.0----29.86- 78.6 70.2----
2024-05-28 01:00 pm W 7.0 9.9----29.86+0.01 79.0 70.2----
2024-05-28 12:54 pmWSW 8.9 9.9----29.86- 77.7 70.2----
2024-05-28 12:48 pmWSW 8.9 12.0----29.86- 77.7 70.2----
2024-05-28 12:42 pm W 4.1 5.1----29.86- 79.3 70.2----
2024-05-28 12:36 pmWSW 2.9 5.1----29.86- 79.2 70.2----
2024-05-28 12:30 pmSSW 1.9 4.1----29.86- 77.5 70.2----
2024-05-28 12:24 pm S 1.9 2.9----29.86- 77.0 70.2----
2024-05-28 12:18 pmSSE 4.1 5.1----29.86- 76.3 70.2----
2024-05-28 12:12 pm SW 2.9 5.1----29.86- 78.4 70.2----
2024-05-28 12:06 pm W 1.9 7.0----29.86- 78.6 70.2----
2024-05-28 12:00 pm W 4.1 7.0----29.87+0.04 79.0 70.3----
2024-05-28 11:54 amNNW 4.1 6.0----29.87- 77.0 70.3----
2024-05-28 11:48 am W 2.9 6.0----29.87- 77.7 70.5----
2024-05-28 11:42 am NW 4.1 8.9----29.87- 76.8 70.5----
2024-05-28 11:36 am NW 4.1 8.0----29.87- 76.5 70.5----
2024-05-28 11:30 amNNW 6.0 8.0----29.87- 76.1 70.7----
2024-05-28 11:24 am W 2.9 11.1----29.87- 77.9 70.7----
2024-05-28 11:18 amWNW 6.0 9.9----29.87- 77.4 70.7----
2024-05-28 11:12 amWNW 4.1 9.9----29.87- 77.2 70.7----
2024-05-28 11:06 am W 6.0 8.9----29.86- 76.8 70.9----
2024-05-28 11:00 amWNW 5.1 12.0----29.86+0.03 76.6 70.9----
2024-05-28 10:54 amWNW 6.0 12.0----29.86- 76.3 70.9----
2024-05-28 10:48 amWNW 7.0 8.9----29.86- 76.3 70.9----
2024-05-28 10:42 amNNW 7.0 11.1----29.86- 75.4 70.9----
2024-05-28 10:36 amNNW 8.0 12.0----29.86- 75.2 71.1----
2024-05-28 10:30 amNNW 8.9 12.0----29.85- 75.0 71.1----
2024-05-28 10:24 amNNW 9.9 13.0----29.85- 74.7 70.9----
2024-05-28 10:18 amNNW 8.0 12.0----29.85- 74.7 71.1----
2024-05-28 10:12 amNNW 8.0 14.0----29.85- 74.3 70.9----
2024-05-28 10:06 amNNW 8.9 12.0----29.85- 74.5 71.1----
2024-05-28 10:00 am NW 8.9 12.0----29.85+0.03 74.3 71.2----
2024-05-28 09:54 am NW 7.0 11.1----29.85- 74.3 71.4----
2024-05-28 09:48 amNNW 6.0 15.9----29.85- 74.3 71.8----
2024-05-28 09:42 am NW 8.9 12.0----29.84- 73.9 72.0----
2024-05-28 09:36 am NW 8.9 15.0----29.84- 74.1 71.8----
2024-05-28 09:30 amNNW 9.9 15.0----29.83- 73.6 71.4----
2024-05-28 09:24 amNNW 8.0 11.1----29.83- 73.6 71.2----
2024-05-28 09:18 am NW 6.0 12.0----29.83- 73.6 71.1----
2024-05-28 09:12 am NW 7.0 9.9----29.83- 73.4 71.2----
2024-05-28 09:06 amNNW 8.9 13.0----29.83- 73.0 71.2----
2024-05-28 09:00 amNNW 8.0 13.0----29.83+0.02 73.0 71.1----
2024-05-28 08:54 amNNW 7.0 12.0----29.83- 73.0 70.9----
2024-05-28 08:48 amNNW 6.0 12.0----29.83-------
2024-05-28 08:42 am NW 8.9 14.0----29.82- 72.7 71.2----
2024-05-28 08:36 amNNW 8.9 14.0----29.83- 72.3 71.6----
2024-05-28 08:30 amNNW 9.9 15.0----29.82- 72.3 71.6----
2024-05-28 08:24 amNNW 8.9 13.0----29.82- 72.1 71.6----
2024-05-28 08:18 am NW 8.0 12.0----29.83- 72.3 71.6----
2024-05-28 08:12 amNNW 9.9 13.0----29.83- 72.1 71.6----
2024-05-28 08:06 am NW 8.9 13.0----29.83- 72.0 71.6----
2024-05-28 08:00 amNNW 6.0 11.1----29.83+0.05 71.8 71.6----
2024-05-28 07:54 amNNW 7.0 13.0----29.82- 71.8 71.6----
2024-05-28 07:48 amNNW 7.0 12.0----29.82- 72.0 71.6----
2024-05-28 07:42 amNNW 8.0 12.0----29.81- 72.0 71.6----
2024-05-28 07:36 am NW 6.0 8.9----29.82- 71.8 71.4----
2024-05-28 07:30 am NW 6.0 8.9----29.81- 71.4 71.4----
2024-05-28 07:24 am NW 4.1 8.9----29.81- 71.1 71.4----
2024-05-28 07:18 am NW 4.1 7.0----29.81- 70.9 71.4----
2024-05-28 07:12 amWNW 5.1 6.0----29.82- 71.1 71.4----
2024-05-28 07:06 am W 2.9 6.0----29.82- 72.0 71.4----
2024-05-28 07:00 am W 5.1 7.0----29.82+0.07 71.4 71.4----
2024-05-28 06:54 am W 2.9 5.1----29.82- 71.4 71.4----
2024-05-28 06:48 am W 2.9 6.0----29.82- 71.2 71.4----
2024-05-28 06:42 amWNW 5.1 7.0----29.81- 70.7 71.4----
2024-05-28 06:36 amWNW 4.1 7.0----29.81- 70.5 71.4----
2024-05-28 06:30 amWNW 5.1 8.0----29.81- 70.5 71.4----
2024-05-28 06:24 amWNW 5.1 8.9----29.82- 70.9 71.4----
2024-05-28 06:18 amWNW 4.1 7.0----29.81- 70.9 71.4----
2024-05-28 06:12 amWNW 2.9 5.1----29.81- 70.3 71.4----
2024-05-28 06:06 am W 2.9 4.1----29.81- 70.0 71.4----
2024-05-28 06:00 am NW 2.9 5.1----29.81+0.06 69.8 71.4----
2024-05-28 05:54 amNNW 2.9 5.1----29.80- 70.0 71.4----
2024-05-28 05:48 amNNW 5.1 6.0----29.80- 70.2 71.4----
2024-05-28 05:42 am W 5.1 6.0----29.80- 69.8 71.6----
2024-05-28 05:36 am W 5.1 5.1----29.79- 70.0 71.6----
2024-05-28 05:30 am W 1.9 4.1----29.79- 70.2 71.4----
2024-05-28 05:24 am W 1.0 2.9----29.78- 70.2 71.4----
2024-05-28 05:18 am- 0.0 1.0----29.78- 69.8 71.6----
2024-05-28 05:12 am- 0.0 1.9----29.78- 70.0 71.6----
2024-05-28 05:06 amNNE 1.0 2.9----29.77- 70.5 71.8----
2024-05-28 05:00 am N 1.9 2.9----29.77+0.01 70.9 71.8----
2024-05-28 04:54 am- 0.0 1.0----29.77- 70.5 71.8----
2024-05-28 04:48 amNNE 1.0 2.9----29.77- 70.7 71.8----
2024-05-28 04:42 am NW 1.0 4.1----29.77- 70.7 71.8----
2024-05-28 04:36 am NW 1.0 5.1----29.76- 71.1 71.6----
2024-05-28 04:30 amWNW 1.9 4.1----29.76- 71.1 71.8----
2024-05-28 04:24 am N 1.0 1.9----29.76- 71.1 71.8----
2024-05-28 04:18 amNNW 1.0 1.9----29.76- 71.1 71.8----
2024-05-28 04:12 amNNW 1.0 2.9----29.75- 71.1 71.8----
2024-05-28 04:06 am NW 1.9 2.9----29.75- 71.1 71.8----
2024-05-28 04:00 amNNW 2.9 4.1----29.75+0.00 71.2 71.8----
2024-05-28 03:54 am W 1.9 4.1----29.75- 71.2 71.8----
2024-05-28 03:48 am W 1.9 5.1----29.75- 71.4 71.8----
2024-05-28 03:42 am NW 1.9 4.1----29.75- 71.6 71.8----
2024-05-28 03:36 amNNW 1.9 2.9----29.75- 71.6 71.8----
2024-05-28 03:30 amWNW 1.9 4.1----29.75- 71.8 71.8----
2024-05-28 03:24 am NW 1.0 2.9----29.75- 71.8 71.8----
2024-05-28 03:18 amWNW 1.0 4.1----29.75-------
2024-05-28 03:12 amNNW 2.9 4.1----29.75- 71.8 72.0----
2024-05-28 03:06 amWNW 1.9 5.1----29.75- 71.8 72.0----
2024-05-28 03:00 am NW 1.9 8.9----29.75-0.01 72.0 72.0----
2024-05-28 02:54 am W 2.9 8.0----29.75- 71.8 71.8----
2024-05-28 02:48 amWSW 7.0 8.9----29.75- 71.8 71.8----
2024-05-28 02:42 amWSW 8.0 8.9----29.76- 71.6 71.6----
2024-05-28 02:36 amWSW 6.0 8.0----29.75- 71.8 71.4----
2024-05-28 02:30 amWSW 5.1 5.1----29.75- 71.6 71.1----
2024-05-28 02:24 amWSW 4.1 6.0----29.76- 72.0 70.9----
2024-05-28 02:18 am W 2.9 5.1----29.76- 72.0 70.7----
2024-05-28 02:12 am W 2.9 5.1----29.76- 71.8 70.5----
2024-05-28 02:06 amWNW 1.0 2.9----29.76- 71.6 70.5----
2024-05-28 02:00 am W 1.9 2.9----29.76+0.01 71.4 70.5----
2024-05-28 01:54 am- 0.0 1.0----29.76- 71.4 70.5----
2024-05-28 01:48 amWNW 1.0 1.9----29.76- 71.2 70.7----
2024-05-28 01:42 amWNW 1.0 1.9----29.76- 71.2 70.7----
2024-05-28 01:36 am SW 1.9 4.1----29.76- 71.2 70.3----
2024-05-28 01:30 am SW 2.9 4.1----29.76- 71.2 70.3----
2024-05-28 01:24 amSSW 4.1 5.1----29.76- 71.2 70.2----
2024-05-28 01:18 amSSW 4.1 5.1----29.76- 71.1 70.0----
2024-05-28 01:12 am SW 4.1 5.1----29.76- 71.4 70.0----
2024-05-28 01:06 amSSW 5.1 5.1----29.76- 71.4 70.0----
2024-05-28 01:00 amSSW 5.1 5.1----29.76+0.03 71.4 70.2----
2024-05-28 12:54 amSSW 5.1 5.1----29.75- 71.4 70.3----
2024-05-28 12:48 am S 4.1 4.1----29.75- 72.0 70.3----
2024-05-28 12:42 amSSE 2.9 4.1----29.75- 72.3 70.7----
2024-05-28 12:36 amESE 2.9 5.1----29.75- 72.7 70.7----
2024-05-28 12:30 am E 5.1 5.1----29.76- 72.3 70.7----
2024-05-28 12:24 am E 4.1 5.1----29.76- 72.7 70.9----
2024-05-28 12:18 amESE 1.9 1.9----29.76- 73.2 70.9----
2024-05-28 12:12 amESE 1.9 2.9----29.76- 73.4 71.1----
2024-05-28 12:06 am E 2.9 4.1----29.76- 73.6 71.1----
2024-05-28 12:00 am SE 4.1 4.1----29.76+0.06 73.2 71.1----
2024-05-27 11:54 pm S 2.9 2.9----29.76- 73.8 71.2----
2024-05-27 11:48 pmESE 1.9 1.9----29.76- 74.3 71.2----
2024-05-27 11:42 pmENE 1.0 1.0----29.76- 74.3 71.2----
2024-05-27 11:36 pm N 1.0 1.9----29.76- 74.3 71.1----
2024-05-27 11:30 pm NW 1.9 4.1----29.76- 74.3 71.1----
2024-05-27 11:24 pm N 4.1 5.1----29.76- 74.3 70.9----
2024-05-27 11:18 pmNNE 4.1 6.0----29.76- 74.5 70.7----
2024-05-27 11:12 pm N 7.0 8.0----29.76- 74.8 70.7----
2024-05-27 11:06 pm N 2.9 4.1----29.75- 74.3 70.7----
2024-05-27 11:00 pm N 4.1 9.9----29.75+0.06 74.3 71.1----
2024-05-27 10:54 pm N 8.0 12.0----29.75- 74.5 70.9----
2024-05-27 10:48 pm W 6.0 12.0----29.74- 74.3 70.9----
2024-05-27 10:42 pm SW 11.1 14.0----29.74- 74.1 70.9----
2024-05-27 10:36 pm SW 9.9 12.0----29.74- 74.3 71.1----
2024-05-27 10:30 pm SW 8.9 12.0----29.73- 74.3 70.9----
2024-05-27 10:24 pm SW 11.1 14.0----29.73- 74.5 71.2----
2024-05-27 10:18 pm SW 11.1 13.0----29.74- 74.7 71.4----
2024-05-27 10:12 pm SW 11.1 13.0----29.73- 74.8 71.6----
2024-05-27 10:06 pm SW 11.1 14.0----29.73- 75.0 71.8----
2024-05-27 10:00 pm SW 9.9 14.0----29.73+0.04 74.8 71.8----
2024-05-27 09:54 pm SW 9.9 15.0----29.73- 74.8 71.8----
2024-05-27 09:48 pm SW 12.0 15.0----29.73-- 72.0----
2024-05-27 09:42 pm SW 12.0 14.0----29.72- 75.6 72.0----
2024-05-27 09:36 pm SW 11.1 12.0----29.72- 75.6 72.1----
2024-05-27 09:30 pmSSW 12.0 15.0----29.72- 75.7 72.3----
2024-05-27 09:24 pmSSW 12.0 15.0----29.72- 75.9 72.1----
2024-05-27 09:18 pmSSW 8.9 11.1----29.72-------
2024-05-27 09:12 pmSSW 8.9 11.1----29.71- 75.9 72.1----
2024-05-27 09:06 pmSSW 9.9 12.0----29.71- 76.3 72.0----
2024-05-27 09:00 pmSSW 9.9 13.0----29.70- 76.5 72.1----
2024-05-27 08:54 pm S 11.1 12.0----29.70- 76.8 72.1----
2024-05-27 08:48 pm S 8.0 8.9----29.70- 76.6 72.1----
2024-05-27 08:42 pmSSW 7.0 9.9----29.70- 77.0 72.1----
2024-05-27 08:36 pmSSW 8.0 9.9----29.69- 77.0 72.0----
2024-05-27 08:30 pmSSW 8.0 9.9----29.69- 77.5 71.8----
2024-05-27 08:24 pmSSW 7.0 9.9----29.69- 77.5 71.4----
2024-05-27 08:18 pmSSW 8.0 8.9----29.69- 77.5 71.2----
2024-05-27 08:12 pmSSW 8.0 8.9----29.69- 77.4 71.4----
2024-05-27 08:06 pmSSW 7.0 7.0----29.69- 77.4 71.6----
2024-05-27 08:00 pmSSW 6.0 8.0----29.68-0.01 77.4 71.8----
2024-05-27 07:54 pmSSW 7.0 8.9----29.68- 77.7 72.9----
2024-05-27 07:48 pmSSW 8.0 9.9----29.68-- 73.0----
2024-05-27 07:42 pmSSW 8.9 9.9----29.68-- 73.0----
2024-05-27 07:36 pm SW 8.0 11.1----29.68-- 73.2----
2024-05-27 07:30 pm SW 8.9 12.0----29.68- 77.7 73.2----
2024-05-27 07:24 pmSSW 11.1 15.0----29.68- 78.3 73.2----
2024-05-27 07:18 pmSSW 12.0 17.1----29.68- 78.6 73.2----
2024-05-27 07:12 pmSSW 11.1 12.0----29.68- 78.6 73.0----
2024-05-27 07:06 pmSSW 8.9 14.0----29.69- 78.4 73.0----
2024-05-27 07:00 pmSSW 13.0 17.1----29.69-0.02 78.8 73.0----
2024-05-27 06:54 pmSSW 12.0 14.0----29.69- 78.6 72.9----
2024-05-27 06:48 pmSSW 11.1 12.0----29.69- 78.1 73.0----
2024-05-27 06:42 pmSSW 8.9 12.0----29.68- 78.3 73.0----
2024-05-27 06:36 pmSSW 9.9 15.0----29.68- 78.6 73.0----
2024-05-27 06:30 pmSSW 13.0 20.0----29.69- 78.8 73.0----
2024-05-27 06:24 pmSSW 15.9 19.0----29.69- 79.3 73.0----
2024-05-27 06:18 pmSSW 13.0 18.1----29.69- 79.2 73.0----
2024-05-27 06:12 pmSSW 14.0 17.1----29.69- 79.0 73.0----
2024-05-27 06:06 pmSSW 14.0 20.0----29.69- 78.8 73.0----
2024-05-27 06:00 pm--------- 79.0 73.0----
2024-05-27 05:54 pm--------- 78.3 73.0----
2024-05-27 05:48 pmSSW 15.0 20.0----29.69- 78.6 73.0----
2024-05-27 05:42 pmSSW 15.9 20.0----29.68- 78.6 73.0----
2024-05-27 05:36 pmSSW 19.0 24.1----29.69- 78.4 73.0----
2024-05-27 05:30 pm SW 19.0 22.9----29.68-- 73.0----
2024-05-27 05:24 pmSSW 19.0 25.1----29.68-- 73.0----
2024-05-27 05:18 pmSSW 17.1 21.0----29.69- 78.4 73.0----
2024-05-27 05:12 pmSSW 14.0 19.0----29.69- 77.9 73.0----
2024-05-27 05:06 pmSSW 17.1 20.0----29.69- 78.1 73.0----
2024-05-27 05:00 pmSSW 15.9 19.0----29.69-0.07 77.7 73.0----
2024-05-27 04:54 pmSSW 13.0 17.1----29.69- 77.7 72.9----
2024-05-27 04:48 pmSSW 13.0 15.9----29.69- 77.5 72.9----
2024-05-27 04:42 pmSSW 12.0 14.0----29.70- 77.0 72.7----
2024-05-27 04:36 pmSSW 11.1 18.1----29.70- 76.8 72.7----
2024-05-27 04:30 pm-------29.70- 77.0 72.7----
2024-05-27 04:24 pm-------29.71- 76.6 72.5----
2024-05-27 04:18 pmSSW 13.0 17.1----29.71- 76.3 72.5----
2024-05-27 04:12 pm S 14.0 18.1----29.71- 76.8 72.5----
2024-05-27 04:06 pmSSW 15.0 19.0----29.71- 76.3 72.5----
2024-05-27 04:00 pm S 15.9 22.0----29.71-0.08 76.6 72.5----
2024-05-27 03:54 pm S 19.0 22.9----29.72- 76.1 72.5----